SL-12 R/B(2), 18578

Orbit data source: Space-Track

SL-12 R/B(2), 18578 is space debris in GEO originally from a launch on Thu, 26 Nov 1987 UTC launched from the Tyuratam Missile And Space Complex (TTMTR). Debris objects in space refer to the collection of defunct objects orbiting the Earth. Examples of debris include non-operational satellites, rocket bodies, and fragments generated from explosions, collisions, or faulty payload assembly.

Not visible in the next 10 days
Identifier
18578, 1987-096D
Orbit
GEO
Country
Flag of CISCIS
Related business
Manufacturer
NPO Energiya
Mission
Spacecraft
Bus & Motor
BLOK DM, Unknown motor
Mass
2,440 kg wet, 2,440 kg dry
Launch date (UTC)
1987-11-26 (39 years ago)
Launch vehicle
Unknown
Launch site
Tyuratam Missile And Space Complex (TTMTR)
Object type
Payload
Rocket body
Debris
Shape & HBR
Cyl, 3.6 m
Radar Cross Section
23.597 m², Large (>1 m²)

Expand to show TLE details & history
Last TLE update: 14 hours ago

TLE from 14 hours ago
0 SL-12 R/B(2)
1 18578U 87096D   26257.60058111 -.00000327  00000-0  00000+0 0  9995
2 18578  10.6962 325.6060 0023531 251.1751 121.5865  1.00563671138934
Epoch: 2026-09-14T14:24Z
TLE epoch observation values (Epoch: 2026-09-14T14:24:50.207Z)
Latitude
2.39254°
Longitude
128.6016°
Altitude
35,756.678 km
Speed
3.074 km/s
True Right ascension
22h 33m 33s
True Declination
2° 23' 24"
Sunlit
Object was in daylight at epoch
Visualization orbit readout
Latitude
Unknown
Longitude
Unknown
Altitude
Unknown
Speed
Unknown
Apparent Right ascension
Unknown
Apparent Declination
Unknown
Sunlit
N/A
Visualization observer readout
Local Sidereal Time
20:34:59
Azimuth
Unknown
Elevation
Unknown
Doppler factor
Unknown
Orbital elements
Apogee altitude
35,805.013 km
Perigee altitude
35,606.957 km
Semi-major axis
42,084.122 km
Eccentricity
0.00235
Inclination
10.6962°
RAAN
325.606°
Arg. of periapsis
251.1751°
True anomaly
121.81584°
Mean anomaly
121.5865°
Eccentric anomaly
121.70121°
Mean motion
0.2514 °/min
Orbital period
1,431.98 mins
BSTAR
0
Loading maneuver chart data...
Computing Atmospheric mass density...
Loading historical data...
Loading historical data...
Loading historical data...
Loading historical data...
Loading historical data...
Loading historical data...
Loading historical data...

Documentation

Showing up to 5 results
|